Regional Weather Roundup
Issued by NWS San Angelo, TX

Home | Current Version | Previous Version | Text Only | Print | Product List | Glossary On
Versions: 1 2 3 4 5 6 7 8 9 10 11 12 13 14 15 16 17 18 19 20 21 22 23 24 25 26 27 28 29 30 31 32 33 34 35 36 37 38 39 40 41 42 43 44 45 46 47 48 49 50
000
ASUS44 KSJT 271810
RWRSJT
WEST CENTRAL TEXAS REGIONAL WEATHER ROUNDUP
NATIONAL WEATHER SERVICE SAN ANGELO TX
100 PM CDT WED MAY 27 2015

NOTE: "FAIR" INDICATES FEW OR NO CLOUDS BELOW 12,000 FEET WITH NO
SIGNIFICANT WEATHER AND/OR OBSTRUCTIONS TO VISIBILITY.

TXZ049-054-064>066-071>073-076>078-098-099-113-114-127-128-139-140-
154-155-168>170-271900
...LOCATIONS ACROSS WEST CENTRAL TEXAS...

CITY           SKY/WX    TMP DP  RH WIND       PRES   REMARKS
SAN ANGELO     FAIR      86  69  56 S15G22    30.04F
ABILENE        PTSUNNY   85  71  63 S13       30.07F
DYESS AFB      PTSUNNY   85  65  50 S12       30.05F
JUNCTION       PTSUNNY   85  69  58 S10       30.06F
SWEETWATER     FAIR      83  67  59 S8        30.11S
BROWNWOOD      PTSUNNY   84  72  65 S13       30.07F
COLEMAN        MOCLDY    84  72  67 S8G18     30.07F
SONORA         FAIR      82  70  65 SE14      30.11F
OZONA          FAIR      84  68  58 S13       30.09F
BRADY          MOSUNNY   86  70  58 SE10      30.07F
$$

TEXAS PANHANDLE/OKLAHOMA PANHANDLE

CITY           SKY/WX    TMP DP  RH WIND       PRES   REMARKS
AMARILLO       FAIR      81  59  47 SW14      30.09S
BORGER         FAIR      86  50  28 SW9G16    30.05F
CANADIAN       FAIR      81  66  60 SE10      30.05F
DALHART        SUNNY     81  53  37 SW10      30.10F
DUMAS          FAIR      80  54  41 SW12      30.08F
GUYMON         NOT AVBL
HEREFORD       FAIR      80  65  59 MISG      30.11F
PAMPA          FAIR      82  60  48 SW10G18   30.09S
PERRYTON       FAIR      80  61  51 SE15      30.06S
$$

SOUTHERN PANHANDLE/SOUTH PLAINS/ROLLING PLAINS

CITY           SKY/WX    TMP DP  RH WIND       PRES   REMARKS
LUBBOCK        PTSUNNY   81  64  56 SW13      30.09F
SNYDER         FAIR      82  68  63 S12       30.09S
CHILDRESS      FAIR      81  68  64 SE7       30.06F
SEMINOLE       FAIR      83  64  52 S12G17    30.09F
$$

PERMIAN BASIN

CITY           SKY/WX    TMP DP  RH WIND       PRES   REMARKS
MIDLAND        FAIR      84  66  54 S10       30.06F
ODESSA         FAIR      84  64  50 SE14G20   30.07F
WINK           FAIR      87  63  44 SE13G22   30.02F
$$

FAR WEST/SOUTHWEST MOUNTAINS/TRANS PECOS

CITY           SKY/WX    TMP DP  RH WIND       PRES   REMARKS
ALPINE         FAIR      88  38  17 S10G17    30.16F
DRYDEN           N/A     88  68  51 S14G21    30.01F
EL PASO        PTSUNNY   86  22   9 VRB5      30.06F
FORT STOCKTON  FAIR      86  62  44 S16G22    30.04F
GUADALUPE PASS SUNNY     83  36  18 S15G22    30.18F
MARFA          FAIR      84  48  28 S7G16     30.16S
PECOS          FAIR      86  59  39 E6        30.01F
$$

DALLAS/FORT WORTH METROPLEX

CITY           SKY/WX    TMP DP  RH WIND       PRES   REMARKS
DFW AIRPORT    FAIR      81  63  54 S12       30.08F
FTW MEACHAM    FAIR      83  67  58 SE14      30.07F
DAL-EXECUTIVE  FAIR      77  63  61 SE8       30.08F
GRAND PRAIRIE  NOT AVBL
ADDISON        MOSUNNY   81  63  54 SE12      30.09
MESQUITE       MOCLDY    81  64  57 S5        30.10F
LANCASTER      FAIR      81  63  52 SE5       30.10S
$$

NORTH CENTRAL TEXAS

CITY           SKY/WX    TMP DP  RH WIND       PRES   REMARKS
SHRMAN/DENISON MOCLDY    83  66  56 SE10      30.11S
GAINESVILLE    FAIR      80  63  55 SE13      30.11S
BRIDGEPORT     MOCLDY    83  71  67 S8        30.10S
DENTON         FAIR      82  65  56 SE14      30.08F
WAXAHACHIE     FAIR      80  67  63 SE7       30.10F
GRANBURY       CLOUDY    82  69  64 SE6       30.09F
$$

WESTERN NORTH TEXAS

CITY           SKY/WX    TMP DP  RH WIND       PRES   REMARKS
WICHITA FALLS  PTSUNNY   80  68  66 MISG      30.07F
VERNON         CLOUDY    81  65  57 S12       30.08S
BRECKENRIDGE   CLOUDY    83  71  67 S7        30.06F
COMANCHE       FAIR      83  74  75 S10       30.08F
$$

CENTRAL AND SOUTH CENTRAL TEXAS

CITY           SKY/WX    TMP DP  RH WIND       PRES   REMARKS
AUSTIN/BERGSTM CLOUDY    75  73  93 E3        30.07F
WACO           FAIR      83  70  64 S8        30.08F
HILLSBORO      FAIR     N/A N/A N/A SE12      30.09F
TEMPLE         FAIR      82  70  65 SE13G21   30.07F
KILLEEN-GRAY   PTSUNNY   79  72  78 SE10      30.07F
FORT HOOD      FAIR      81  72  75 S10       30.07F
GEORGETOWN     MOSUNNY   82  72  69 S16G23    30.07F
LAGO VISTA     FAIR      82  71  68 SE9G17    30.10F
SAN MARCOS     PTSUNNY   81  73  78 SE9       30.06F FOG
NEW BRAUNFELS  PTSUNNY   88  71  57 S15G24    30.05F
RANDOLPH AFB   MOSUNNY   86  71  61 SE18G24   30.06F
SAN ANTONIO    FAIR      86  72  62 SE15G23   30.07F
STINSON        PTSUNNY   87  73  62 SE14      30.04F
PLEASANTON     NOT AVBL
LA GRANGE      FAIR      84  74  71 SE8       30.06R
GIDDINGS       FAIR      79  71  78 SE6       30.11S
$$

EAST TEXAS

CITY           SKY/WX    TMP DP  RH WIND       PRES   REMARKS
PARIS          FAIR      81  63  54 SE6       30.11F
CLARKSVILLE    NOT AVBL
TYLER          PTSUNNY   82  66  58 SW6       30.10F
LONGVIEW       FAIR      81  67  62 SE5       30.09F
PALESTINE      FAIR      82  70  68 S6        30.10F
NACOGDOCHES    FAIR      77  68  73 SW7       30.11R
$$

TEXAS HILL COUNTRY AND EDWARDS PLATEAU

CITY           SKY/WX    TMP DP  RH WIND       PRES   REMARKS
LLANO          FAIR      82  73  74 SE12G18   30.10F
HORSESHOE BAY  MOCLDY    80  72  76 SE10G18   30.08F
KERRVILLE      PTSUNNY   82  73  72 S15G24    30.09S
FREDERICKSBRG  CLOUDY    80  70  71 S9        30.08F
ROCKSPRINGS    MOCLDY    79  72  78 S14       30.12S HAZE
HONDO          PTSUNNY   84  71  65 SE15      30.08S
UVALDE         FAIR      83  72  69 SE14      30.05S
DEL RIO        PTSUNNY   84  74  71 SE14      30.00F
$$

SOUTHEAST TEXAS

CITY           SKY/WX    TMP DP  RH WIND       PRES   REMARKS
COLLEGE STN    FAIR      83  71  67 VRB7      30.08S
CALDWELL       FAIR      82  73  74 S12G18    30.11S
CROCKETT       NOT AVBL
BRENHAM        FAIR      83  74  73 SE5       30.09S
HUNTSVILLE     FAIR      79  69  71 CALM      30.09F
CONROE         FAIR      79  67  66 S5        30.10S
HOUSTON BUSH   PTSUNNY   79  71  76 SE8       30.09F
HOUSTON HOBBY  FAIR      78  70  76 CALM      30.09F
PERLAND        FAIR      80  71  74 VRB5      30.10S
WHARTON        FAIR      83  70  64 SE10      30.09S
$$

THE UPPER TEXAS COAST

CITY           SKY/WX    TMP DP  RH WIND       PRES   REMARKS
ORANGE         FAIR      78  67  68 NE6       30.09S
PORT ARTHUR    FAIR      82  69  64 E7        30.08R
GALVESTON      FAIR      79  73  82 SE15      30.10R
ANGLETON       FAIR      81  72  74 SE10      30.08F
BAY CITY       FAIR      84  73  69 SE15      30.08F
$$

TEXAS COASTAL BEND, RIO GRANDE PLAINS DEEP SOUTH TEXAS

CITY           SKY/WX    TMP DP  RH WIND       PRES   REMARKS
VICTORIA       FAIR      85  75  72 SE22G29   30.07F
BEEVILLE       FAIR      87  75  68 SE17G24   30.04F
ROCKPORT       PTSUNNY   89  74  60 SE21      30.05F
PORT ARANSAS   FAIR      85  76  73 SE15G21   30.06S
PORT LAVACA    FAIR      81  74  79 E20G28    30.08S
CORPUS CHRISTI PTSUNNY   87  73  62 SE17      30.04F
KINGSVILLE NAS PTSUNNY   87  77  72 SE20      30.03F
COTULLA        FAIR      87  70  56 SE13      30.02F
LAREDO         FAIR      89  71  55 SE16      30.02F
BROWNSVILLE    PTSUNNY   87  75  67 E16       30.01F
PORT ISABEL    FAIR      86  76  71 E16       30.02S
HEBBRONVILLE     N/A     87  70  56 SE17G26   30.03F
MCALLEN        FAIR      92  74  55 S17       29.99F
WESLACO        CLOUDY    88  72  59 SE12G18   30.00S
FALFURRIAS     MOCLDY    88  73  61 SE12      30.01F
EDINBURG       FAIR      91  73  55 SE14G22   30.00F
$$


USA.gov is the U.S. government's official web portal to all federal, state and local government web resources and services.